Flag for United Kingdom Weather past 2 weeks in Swansea, Wales, United Kingdom

Now
60 °F

Cool.


Feels Like: 57 °F
Forecast: 51 / 70 °F
Wind: 20 mph from Northeast

Location: Mumbles

Current Time: Sep 15, 2014 at 5:33:03 AM

Latest Report: Sep 15, 2014 at 4:00 AM


Visibility: N/A

Pressure: 30.10 "Hg

Humidity: 76%

Dew point: 52 °F

Location of SwanseaLocation

Historic Weather in Swansea — Graph

°F

Swansea temperature yesterday

Maximum temperature yesterday: 66 °F (at 5:00 PM)
Minimum temperature yesterday: 57 °F (at 8:00 AM)
Average temperature yesterday: 62 °F

Past Weeks' High & Low Weather Summary

 TemperatureHumidityPressure
High71 °F (Sep 6, 4:00 PM)99% (Sep 1, 7:00 AM)30.34 "Hg (Sep 1, 7:00 AM)
Low54 °F (Sep 7, 5:00 AM)58% (Sep 7, 1:00 PM)29.96 "Hg (Sep 6, 5:00 PM)
Average62 °F76%30.15 "Hg
* Reported Aug 31 3:00 AM — Sep 15 3:00 AM, Swansea, Weather by CustomWeather, © 2014

Note: Actual official high and low records may vary slightly from our data, if they occured in-between our weather recording intervals... More about our weather records

Advertising

Swansea weather history for previous 24 hours

 ConditionsComfort  
Time TempWeatherWind HumidityBarometerVisibility
3:00 AM
Sep 15
60 °FCool.16 mph80%30.11 "HgN/A
2:00 AM62 °FCool.16 mph78%30.12 "HgN/A
1:00 AM62 °FCool.16 mph77%30.12 "HgN/A
12:00 AM62 °FCool.14 mph77%30.12 "HgN/A
11:00 PM
Sep 14
62 °FCool.14 mph75%30.12 "HgN/A
10:00 PM62 °FMild.14 mph75%30.12 "HgN/A
9:00 PM63 °FMild.14 mph72%30.12 "HgN/A
8:00 PM65 °FMild.10 mph70%30.12 "HgN/A
7:00 PM66 °FMild.12 mph65%30.11 "HgN/A
6:00 PM66 °FMild.9 mph68%30.13 "HgN/A
5:00 PM66 °FMild.12 mph68%30.14 "HgN/A
4:00 PM65 °FMild.5 mph72%30.16 "HgN/A
3:00 PM65 °FMild.8 mph66%30.18 "HgN/A
2:00 PM65 °FMild.12 mph69%30.20 "HgN/A
1:00 PM63 °FMild.17 mph73%30.22 "HgN/A
11:00 AM64 °FMild.15 mph70%30.23 "HgN/A
10:00 AM61 °FCool.13 mph74%30.24 "HgN/A
9:00 AM57 °FCool.13 mph78%30.24 "HgN/A
8:00 AM57 °FCool.15 mph80%30.25 "HgN/A
7:00 AM57 °FCool.15 mph80%30.25 "HgN/A
6:00 AM59 °FCool.22 mph79%30.25 "HgN/A
5:00 AM58 °FCool.15 mph81%30.26 "HgN/A
Weather by CustomWeather, © 2014

See weather overviewHow to use our weather pages